Time,TemperatureF,DewpointF,PressureIn,WindDirection,WindDirectionDegrees,WindSpeedMPH,WindSpeedGustMPH,Humidity,HourlyPrecipIn,Conditions,Clouds,dailyrainin,SoftwareType,DateUTC
2013-11-29 00:12:00,32.0,29.0,30.49,SSE,155,0.0,0.0,90,0.00,,,0.00,,2013-11-29 06:12:00,
2013-11-29 00:22:00,32.0,29.0,30.49,SSE,155,0.0,1.0,90,0.00,,,0.00,,2013-11-29 06:22:00,
2013-11-29 00:33:00,32.0,29.0,30.49,SSE,155,0.0,1.0,90,0.00,,,0.00,,2013-11-29 06:33:00,
2013-11-29 00:42:00,32.0,29.0,30.49,SSE,155,0.0,1.0,90,0.00,,,0.00,,2013-11-29 06:42:00,
2013-11-29 00:52:00,32.0,30.0,30.49,SSE,155,0.0,2.0,92,0.00,,,0.00,,2013-11-29 06:52:00,
2013-11-29 01:12:00,32.0,30.0,30.50,SSE,155,0.0,2.0,92,0.00,,,0.00,,2013-11-29 07:12:00,
2013-11-29 01:21:00,31.0,29.0,30.50,SSE,155,0.0,0.0,93,0.00,,,0.00,,2013-11-29 07:21:00,
2013-11-29 01:42:00,31.0,29.0,30.49,SSE,155,0.0,1.0,93,0.00,,,0.00,,2013-11-29 07:42:00,
2013-11-29 01:52:00,31.0,29.0,30.49,SSE,155,0.0,0.0,93,0.00,,,0.00,,2013-11-29 07:52:00,
2013-11-29 02:11:00,31.0,29.0,30.49,SSE,155,0.0,1.0,94,0.00,,,0.00,,2013-11-29 08:11:00,
2013-11-29 02:21:00,31.0,29.0,30.49,SSE,155,0.0,0.0,94,0.00,,,0.00,,2013-11-29 08:21:00,
2013-11-29 02:42:00,31.0,29.0,30.49,SSE,155,0.0,1.0,94,0.00,,,0.00,,2013-11-29 08:42:00,
2013-11-29 02:52:00,30.0,28.0,30.49,SSE,155,0.0,2.0,94,0.00,,,0.00,,2013-11-29 08:52:00,
2013-11-29 03:11:00,30.0,28.0,30.50,SSE,155,0.0,2.0,94,0.00,,,0.00,,2013-11-29 09:11:00,
2013-11-29 03:21:00,30.0,28.0,30.50,South,179,1.0,3.0,94,0.00,,,0.00,,2013-11-29 09:21:00,
2013-11-29 03:43:00,30.0,28.0,30.50,South,179,0.0,1.0,94,0.00,,,0.00,,2013-11-29 09:43:00,
2013-11-29 03:52:00,29.0,27.0,30.50,South,179,0.0,0.0,94,0.00,,,0.00,,2013-11-29 09:52:00,
2013-11-29 04:13:00,29.0,27.0,30.50,South,179,0.0,0.0,94,0.00,,,0.00,,2013-11-29 10:13:00,
2013-11-29 04:23:00,29.0,27.0,30.49,South,179,0.0,0.0,94,0.00,,,0.00,,2013-11-29 10:23:00,
2013-11-29 04:42:00,29.0,27.0,30.50,South,179,0.0,0.0,94,0.00,,,0.00,,2013-11-29 10:42:00,
2013-11-29 04:52:00,29.0,27.0,30.51,South,179,0.0,2.0,94,0.00,,,0.00,,2013-11-29 10:52:00,
2013-11-29 05:12:00,29.0,27.0,30.50,South,179,0.0,1.0,94,0.00,,,0.00,,2013-11-29 11:12:00,
2013-11-29 05:22:00,29.0,27.0,30.50,South,179,0.0,0.0,94,0.00,,,0.00,,2013-11-29 11:22:00,
2013-11-29 05:42:00,29.0,28.0,30.51,South,179,1.0,2.0,95,0.00,,,0.00,,2013-11-29 11:42:00,
2013-11-29 05:52:00,29.0,27.0,30.52,South,179,0.0,1.0,94,0.00,,,0.00,,2013-11-29 11:52:00,
2013-11-29 06:12:00,29.0,28.0,30.52,South,179,0.0,0.0,95,0.00,,,0.00,,2013-11-29 12:12:00,
2013-11-29 06:22:00,28.0,27.0,30.52,South,179,0.0,0.0,94,0.00,,,0.00,,2013-11-29 12:22:00,
2013-11-29 06:42:00,28.0,27.0,30.53,South,179,0.0,0.0,94,0.00,,,0.00,,2013-11-29 12:42:00,
2013-11-29 06:52:00,28.0,27.0,30.53,South,179,0.0,0.0,94,0.00,,,0.00,,2013-11-29 12:52:00,
2013-11-29 07:11:00,28.0,27.0,30.54,South,179,0.0,0.0,94,0.00,,,0.00,,2013-11-29 13:11:00,
2013-11-29 07:22:00,28.0,27.0,30.54,South,179,0.0,0.0,94,0.00,,,0.00,,2013-11-29 13:22:00,
2013-11-29 07:42:00,28.0,27.0,30.54,South,179,0.0,0.0,95,0.00,,,0.00,,2013-11-29 13:42:00,
2013-11-29 07:52:00,28.0,27.0,30.55,South,179,0.0,1.0,95,0.00,,,0.00,,2013-11-29 13:52:00,
2013-11-29 08:11:00,28.0,27.0,30.55,South,179,0.0,0.0,95,0.00,,,0.00,,2013-11-29 14:11:00,
2013-11-29 08:22:00,30.0,29.0,30.55,South,179,0.0,0.0,95,0.00,,,0.00,,2013-11-29 14:22:00,
2013-11-29 08:42:00,31.0,30.0,30.55,South,179,0.0,1.0,96,0.01,,,0.01,,2013-11-29 14:42:00,
2013-11-29 08:52:00,33.0,32.0,30.55,South,178,0.0,2.0,96,0.01,,,0.01,,2013-11-29 14:52:00,
2013-11-29 09:11:00,35.0,34.0,30.55,South,172,1.0,2.0,96,0.01,,,0.01,,2013-11-29 15:11:00,
2013-11-29 09:22:00,36.0,35.0,30.55,SE,140,0.0,3.0,95,0.01,,,0.01,,2013-11-29 15:22:00,
2013-11-29 09:43:00,38.0,35.0,30.55,SE,141,1.0,4.0,90,0.00,,,0.01,,2013-11-29 15:43:00,
2013-11-29 09:53:00,40.0,36.0,30.55,SE,126,1.0,4.0,85,0.00,,,0.01,,2013-11-29 15:53:00,
2013-11-29 10:13:00,41.0,34.0,30.55,SE,134,2.0,6.0,76,0.00,,,0.01,,2013-11-29 16:13:00,
2013-11-29 10:23:00,42.0,34.0,30.55,SE,134,1.0,5.0,74,0.00,,,0.01,,2013-11-29 16:23:00,
2013-11-29 10:42:00,43.0,35.0,30.55,East,89,1.0,5.0,74,0.00,,,0.01,,2013-11-29 16:42:00,
2013-11-29 10:53:00,44.0,35.0,30.55,SE,128,1.0,4.0,70,0.00,,,0.01,,2013-11-29 16:53:00,
2013-11-29 11:12:00,45.0,35.0,30.55,East,92,0.0,4.0,67,0.00,,,0.01,,2013-11-29 17:12:00,
2013-11-29 11:22:00,46.0,35.0,30.55,NE,51,2.0,7.0,65,0.00,,,0.01,,2013-11-29 17:22:00,
2013-11-29 11:43:00,46.0,35.0,30.54,ENE,63,5.0,7.0,65,0.00,,,0.01,,2013-11-29 17:43:00,
2013-11-29 11:52:00,46.0,35.0,30.53,NE,44,4.0,8.0,64,0.00,,,0.01,,2013-11-29 17:52:00,
2013-11-29 12:11:00,47.0,35.0,30.53,NE,36,3.0,8.0,64,0.00,,,0.01,,2013-11-29 18:11:00,
2013-11-29 12:22:00,48.0,35.0,30.52,ENE,76,1.0,6.0,61,0.00,,,0.01,,2013-11-29 18:22:00,
2013-11-29 12:42:00,48.0,35.0,30.51,ENE,74,0.0,7.0,60,0.00,,,0.01,,2013-11-29 18:42:00,
2013-11-29 12:52:00,49.0,34.0,30.50,East,79,1.0,5.0,57,0.00,,,0.01,,2013-11-29 18:52:00,
2013-11-29 13:11:00,50.0,35.0,30.49,ENE,59,1.0,8.0,56,0.00,,,0.01,,2013-11-29 19:11:00,
2013-11-29 13:21:00,51.0,37.0,30.49,North,5,1.0,7.0,59,0.00,,,0.01,,2013-11-29 19:21:00,
2013-11-29 13:42:00,51.0,33.0,30.48,NE,36,2.0,7.0,50,0.00,,,0.01,,2013-11-29 19:42:00,
2013-11-29 13:52:00,51.0,35.0,30.47,ENE,67,0.0,5.0,54,0.00,,,0.01,,2013-11-29 19:52:00,
2013-11-29 14:11:00,52.0,34.0,30.47,NNE,21,2.0,7.0,50,0.00,,,0.01,,2013-11-29 20:11:00,
2013-11-29 14:22:00,52.0,34.0,30.47,NE,53,1.0,5.0,50,0.00,,,0.01,,2013-11-29 20:22:00,
2013-11-29 14:42:00,52.0,33.0,30.46,North,5,3.0,6.0,49,0.00,,,0.01,,2013-11-29 20:42:00,
2013-11-29 14:52:00,53.0,36.0,30.46,NNW,348,1.0,7.0,52,0.00,,,0.01,,2013-11-29 20:52:00,
2013-11-29 15:12:00,54.0,36.0,30.45,North,11,0.0,5.0,50,0.00,,,0.01,,2013-11-29 21:12:00,
2013-11-29 15:22:00,54.0,35.0,30.45,NNE,20,1.0,6.0,48,0.00,,,0.01,,2013-11-29 21:22:00,
2013-11-29 15:43:00,55.0,37.0,30.45,NNE,15,2.0,5.0,50,0.00,,,0.01,,2013-11-29 21:43:00,
2013-11-29 15:53:00,55.0,36.0,30.45,ENE,60,2.0,5.0,49,0.00,,,0.01,,2013-11-29 21:53:00,
2013-11-29 16:13:00,54.0,36.0,30.45,NNE,26,3.0,5.0,51,0.00,,,0.01,,2013-11-29 22:13:00,
2013-11-29 16:23:00,54.0,35.0,30.45,ENE,62,1.0,3.0,48,0.00,,,0.01,,2013-11-29 22:23:00,
2013-11-29 16:42:00,54.0,36.0,30.45,NNE,26,1.0,3.0,51,0.00,,,0.01,,2013-11-29 22:42:00,
2013-11-29 16:52:00,54.0,35.0,30.45,NNE,26,1.0,3.0,48,0.00,,,0.01,,2013-11-29 22:52:00,
2013-11-29 17:12:00,53.0,36.0,30.45,NNE,26,1.0,3.0,52,0.00,,,0.01,,2013-11-29 23:12:00,
2013-11-29 17:22:00,52.0,38.0,30.44,NNE,26,0.0,2.0,58,0.00,,,0.01,,2013-11-29 23:22:00,
2013-11-29 17:42:00,51.0,37.0,30.44,NNE,26,0.0,1.0,58,0.00,,,0.01,,2013-11-29 23:42:00,
2013-11-29 17:52:00,50.0,37.0,30.44,NNE,26,0.0,0.0,61,0.00,,,0.01,,2013-11-29 23:52:00,
2013-11-29 18:11:00,49.0,37.0,30.44,NNE,26,0.0,0.0,63,0.00,,,0.01,,2013-11-30 00:11:00,
2013-11-29 18:21:00,47.0,37.0,30.44,NNE,26,0.0,0.0,67,0.00,,,0.01,,2013-11-30 00:21:00,
2013-11-29 18:42:00,46.0,37.0,30.44,NNE,26,0.0,0.0,70,0.00,,,0.01,,2013-11-30 00:42:00,
2013-11-29 18:52:00,45.0,38.0,30.44,NNE,26,0.0,0.0,76,0.00,,,0.01,,2013-11-30 00:52:00,
2013-11-29 19:11:00,44.0,38.0,30.44,NNE,26,0.0,0.0,79,0.00,,,0.01,,2013-11-30 01:11:00,
2013-11-29 19:21:00,43.0,37.0,30.45,NNE,26,0.0,0.0,80,0.00,,,0.01,,2013-11-30 01:21:00,
2013-11-29 19:42:00,42.0,37.0,30.44,NNE,26,0.0,0.0,81,0.00,,,0.01,,2013-11-30 01:42:00,
2013-11-29 19:52:00,42.0,37.0,30.44,NNE,26,0.0,0.0,81,0.00,,,0.01,,2013-11-30 01:52:00,
2013-11-29 20:22:00,41.0,35.0,30.44,NNE,26,0.0,0.0,79,0.00,,,0.01,,2013-11-30 02:22:00,
2013-11-29 20:42:00,40.0,34.0,30.44,NNE,26,0.0,0.0,80,0.00,,,0.01,,2013-11-30 02:42:00,
2013-11-29 20:52:00,39.0,34.0,30.44,NNE,26,0.0,0.0,82,0.00,,,0.01,,2013-11-30 02:52:00,
2013-11-29 21:11:00,39.0,35.0,30.44,NNE,26,0.0,0.0,84,0.00,,,0.01,,2013-11-30 03:11:00,
2013-11-29 21:22:00,39.0,35.0,30.44,NNE,26,0.0,0.0,84,0.00,,,0.01,,2013-11-30 03:22:00,
2013-11-29 21:53:00,38.0,34.0,30.44,NNE,26,0.0,0.0,87,0.00,,,0.01,,2013-11-30 03:53:00,
2013-11-29 22:13:00,37.0,34.0,30.44,NNE,26,0.0,0.0,87,0.00,,,0.01,,2013-11-30 04:13:00,
2013-11-29 22:23:00,37.0,34.0,30.43,NNE,26,0.0,0.0,87,0.00,,,0.01,,2013-11-30 04:23:00,
2013-11-29 22:43:00,37.0,34.0,30.43,NNE,26,0.0,0.0,90,0.00,,,0.01,,2013-11-30 04:43:00,
2013-11-29 22:53:00,37.0,34.0,30.44,NNE,26,0.0,0.0,90,0.00,,,0.01,,2013-11-30 04:53:00,
2013-11-29 23:12:00,36.0,33.0,30.43,NNE,26,0.0,0.0,90,0.00,,,0.01,,2013-11-30 05:12:00,
2013-11-29 23:22:00,36.0,33.0,30.43,NNE,26,0.0,0.0,90,0.00,,,0.01,,2013-11-30 05:22:00,
2013-11-29 23:43:00,36.0,34.0,30.42,NNE,26,0.0,2.0,92,0.00,,,0.01,,2013-11-30 05:43:00,
2013-11-29 23:53:00,35.0,33.0,30.42,NNE,26,1.0,2.0,92,0.00,,,0.01,,2013-11-30 05:53:00,